Regional Weather Roundup
Issued by NWS

Home | Current Version | Previous Version | Text Only | Print | Product List | Glossary Off
Versions: 1 2 3 4 5 6 7 8 9 10 11 12 13 14 15 16 17 18 19 20 21 22 23 24 25 26 27

000
ASUS45 KSLC 070610
RWRUT

UTAH REGIONAL WEATHER ROUNDUP
NATIONAL WEATHER SERVICE SALT LAKE CITY UT
1100 PM MST TUE DEC 06 2016

UTZ001>011-023>025-070700-

NORTHERN UTAH

CITY           SKY/WX    TMP DP  RH WIND       PRES   REMARKS
BRIGHAM CITY     N/A     24  12  61 N13       29.97R WCI  12
HILL AFB       PTCLDY    20  10  67 CALM      29.94R
LOGAN          PTCLDY    19  14  81 CALM      29.95R
OGDEN          CLEAR     21  13  71 NW5       29.94R WCI  15
SALT LAKE CITY PTCLDY    26  16  65 S6        29.95R WCI  19
TOOELE VALLEY  PTCLDY    27  16  63 SW3       29.98R
WENDOVER       PTCLDY    25  10  54 SE5       29.99R WCI  19
HEBER CITY     CLEAR     18   7  62 E7        29.87R WCI   8
WEST JORDAN    PTCLDY    24  19  81 W6        29.95R WCI  16

$$

UTZ011>015-024>027-070700-

CENTRAL/NORTHEAST UTAH

CITY           SKY/WX    TMP DP  RH WIND       PRES   REMARKS
PROVO AIRPORT  PTCLDY    25  16  68 NW10      29.96R WCI  15
MOAB/CANYONLAN CLOUDY    34  12  40 W15       29.85R WCI  24
DELTA          MOCLDY    21   9  58 W6        29.95R WCI  14
PRICE          CLOUDY    24   8  50 NW9       29.85R WCI  14
RICHFIELD      CLOUDY    28  18  64 NE5       29.96R WCI  23
ROOSEVELT      CLOUDY    23   5  46 NW6       29.88R WCI  16
VERNAL         CLOUDY    23  16  74 S6        29.86R WCI  16

$$

UTZ013>016-019>022-027-070700-

SOUTHERN UTAH

CITY           SKY/WX    TMP DP  RH WIND       PRES   REMARKS
BRYCE CANYON   NOT AVBL
CEDAR CITY     CLOUDY    23  11  60 S5        29.92R WCI  17
MILFORD        CLEAR     23  10  57 VRB3      29.94R
ST GEORGE      CLEAR     45  12  26 NE13G21   29.90R
HANKSVILLE     CLOUDY    32   9  37 NW5       29.92R WCI  27
KANAB          CLEAR     34  18  51 SW7       29.90R WCI  28
BLANDING       CLEAR     31   8  38 NW13G18   29.86R WCI  21

$$

REGIONAL REPORTS     COLORADO/ARIZONA

CITY           SKY/WX    TMP DP  RH WIND       PRES   REMARKS
CRAIG, CO      LGT SNOW  18  13  80 W10       29.83R WCI   6
GRAND JUNCTION LGT SNOW  26  25  96 SW3       29.87S FOG
RIFLE, CO      LGT SNOW  24  20  84 W8        29.87R FOG     WCI  15
MONTROSE, CO   CLOUDY    25  21  85 NW20G28   29.84R WCI  11
CORTEZ, CO     PTCLDY    35  21  56 SW15      29.78R WCI  25
COLORADO CITY    N/A     23  19  86 CALM      29.89R
PAGE, AZ       CLEAR     42  18  37 NW6       29.81R
GRAND CANYON   CLOUDY    32  31  96 SW14      29.92R WCI  22
KINGMAN, AZ    CLEAR     42  23  46 E7        29.88R
FLAGSTAFF, AZ  CLEAR     31  27  85 SW14G24   29.92S WCI  21

$$

REGIONAL REPORTS    NEVADA/IDAHO/WYOMING

CITY           SKY/WX    TMP DP  RH WIND       PRES   REMARKS
LAS VEGAS, NV  PTCLDY    51  20  29 W5        29.84R
ELY, NY        PTCLDY     9   4  80 E3        29.94R
ELKO, NV       CLOUDY    22  17  81 CALM      29.98R
POCATELLO, ID  LGT SNOW  17  15  92 NW5       30.00R WCI  10
BURLEY, ID     CLOUDY    20  16  84 W8        30.01R WCI  10
FORT BRIDGER,    N/A      7   2  83 SW7       29.84R WCI  -5
EVANSTON, WY   CLOUDY     4  -1  80 SW9       29.81R WCI -10
ROCK SPRINGS,  LGT SNOW   8   5  87 N3        29.82R FOG

$$




USA.gov is the U.S. government's official web portal to all federal, state and local government web resources and services.